Weather History for Westhampton Beach, NY

Change the Weather History Date:

Tuesday, February 26, 2013

  Actual Average Record
Temperature  
Mean Temperature 38 °F -  
Max Temperature 43 °F 40 °F 54 °F (2002)
Min Temperature 34 °F 23 °F 1 °F (2005)
Degree Days  
Heating Degree Days 26    
Moisture  
Dew Point 31 °F    
Average Humidity 75    
Maximum Humidity 87    
Minimum Humidity 58    
Precipitation  
Precipitation 0.13 in - - ()
Sea Level Pressure  
Sea Level Pressure 30.22 in    
Wind  
Wind Speed 5 mph (East)    
Max Wind Speed 17 mph    
Max Gust Speed 28 mph    
Visibility 10 miles    
Events Rain    
Averages and records for this station are not official NWS values.
T = Trace of Precipitation, MM = Missing Value Source: NWS Daily Summary

Daily Weather History Graph

Daily Weather History Graph

Search for Another Location

Airport:

Trip Planner

Search our weather history database for the weather conditions in past years. The results will help you decide how hot, cold, wet, or windy it might be!

Date:

Astronomy

Feb. 26, 2013 Rise Set
Actual Time 6:28 AM EST 5:38 PM EST
Civil Twilight 6:01 AM EST 6:06 PM EST
Nautical Twilight 5:29 AM EST 6:37 PM EST
Astronomical Twilight 4:57 AM EST 7:09 PM EST
Moon 6:53 PM EST 6:29 AM EST
Length of Visible Light 12h 04m
Length of Day
11h 09m
Full, 99% of the Moon is Illuminated
Feb 26
Full
Mar 4
Last Quarter
Mar 11
New
Mar 19
First Quarter
Mar 27
Full

Hourly Weather History & Observations

Time (EST) Temp. Windchill Dew Point Humidity Pressure Visibility Wind Dir Wind Speed Gust Speed Precip Events Conditions
12:53 AM 35.1 °F - 30.0 °F 82% 30.25 in 10.0 mi Calm Calm - N/A   Overcast
1:53 AM 34.0 °F - 28.9 °F 82% 30.25 in 10.0 mi Calm Calm - N/A   Overcast
2:53 AM 34.0 °F - 28.9 °F 82% 30.29 in 10.0 mi Calm Calm - N/A   Overcast
3:53 AM 36.0 °F - 30.9 °F 82% 30.28 in 10.0 mi Calm Calm - N/A   Overcast
4:53 AM 35.1 °F - 30.9 °F 85% 30.29 in 10.0 mi Calm Calm - N/A   Overcast
5:02 AM 35.6 °F - 30.2 °F 81% 30.28 in 10.0 mi Calm Calm - N/A   Overcast
5:20 AM 35.6 °F - 30.2 °F 81% 30.29 in 10.0 mi Calm Calm - N/A   Overcast
5:53 AM 36.0 °F 33.3 °F 30.9 °F 82% 30.29 in 10.0 mi ENE 3.5 mph - N/A   Overcast
6:53 AM 37.0 °F 33.3 °F 30.9 °F 79% 30.29 in 10.0 mi ENE 4.6 mph - N/A   Overcast
7:53 AM 37.9 °F - 30.9 °F 76% 30.30 in 10.0 mi Calm Calm - N/A   Overcast
8:53 AM 41.0 °F 39.0 °F 28.9 °F 62% 30.32 in 10.0 mi Variable 3.5 mph - N/A   Overcast
9:53 AM 41.0 °F 36.4 °F 28.9 °F 62% 30.33 in 10.0 mi East 6.9 mph - N/A   Overcast
10:53 AM 42.1 °F 36.1 °F 30.0 °F 62% 30.32 in 10.0 mi ESE 10.4 mph - N/A   Overcast
11:53 AM 42.1 °F 36.1 °F 28.0 °F 58% 30.32 in 10.0 mi ESE 10.4 mph - N/A   Overcast
12:53 PM 43.0 °F 37.2 °F 30.9 °F 62% 30.29 in 10.0 mi East 10.4 mph - N/A   Scattered Clouds
1:53 PM 41.0 °F 34.3 °F 32.0 °F 70% 30.28 in 10.0 mi East 11.5 mph 17.3 mph N/A   Overcast
2:07 PM 41.0 °F 35.8 °F 32.0 °F 70% 30.27 in 10.0 mi ESE 8.1 mph - N/A   Overcast
2:53 PM 41.0 °F 34.7 °F 30.9 °F 67% 30.27 in 10.0 mi East 10.4 mph - N/A   Scattered Clouds
3:53 PM 39.9 °F 33.9 °F 30.0 °F 68% 30.25 in 10.0 mi East 9.2 mph - N/A   Scattered Clouds
4:53 PM 39.0 °F 32.3 °F 28.0 °F 65% 30.22 in 10.0 mi East 10.4 mph 16.1 mph N/A   Clear
5:53 PM 37.9 °F 30.9 °F 30.0 °F 73% 30.20 in 10.0 mi East 10.4 mph - N/A   Partly Cloudy
6:53 PM 39.0 °F 31.8 °F 30.0 °F 70% 30.18 in 10.0 mi East 11.5 mph 19.6 mph N/A   Clear
7:53 PM 39.0 °F 33.4 °F 30.0 °F 70% 30.17 in 10.0 mi East 8.1 mph 18.4 mph 0.00 in Rain Light Rain
8:23 PM 39.2 °F 32.0 °F 30.2 °F 70% 30.15 in 10.0 mi East 11.5 mph 16.1 mph 0.00 in Rain Light Rain
8:53 PM 39.0 °F 32.3 °F 32.0 °F 76% 30.14 in 10.0 mi East 10.4 mph 20.7 mph 0.01 in Rain Light Rain
9:19 PM 37.4 °F 29.3 °F 32.0 °F 81% 30.11 in 10.0 mi East 12.7 mph 20.7 mph 0.00 in Rain Light Rain
9:53 PM 37.9 °F 30.5 °F 33.1 °F 83% 30.09 in 8.0 mi East 11.5 mph 20.7 mph 0.01 in Rain Light Rain
10:12 PM 37.4 °F 28.9 °F 33.8 °F 87% 30.06 in 6.0 mi East 13.8 mph 19.6 mph 0.02 in Rain Light Rain
10:53 PM 37.9 °F 29.6 °F 34.0 °F 86% 30.05 in 9.0 mi East 13.8 mph 21.9 mph 0.04 in Rain Light Rain
11:45 PM 39.2 °F 30.2 °F 35.6 °F 87% 30.00 in 5.0 mi East 17.3 mph 27.6 mph 0.06 in Rain Rain
11:53 PM 39.0 °F 31.4 °F 35.1 °F 86% 29.99 in 5.0 mi East 12.7 mph 27.6 mph 0.07 in Rain Rain